Location: Larne
(54.8508°N, 5.8183°W)
Time: 13:40:26
(UTC+01:00)

ISS - Pass Details

Date: 27 September 2021
Orbit: 417 x 423 km, 51.6° (Epoch: 16 October)

Event Time Altitude Azimuth Distance (km) Brightness Sun altitude
Rises 22:17:34 0° 275° (W) 2,369 0.9 -26.2°
Reaches altitude 10° 22:20:01 10° 258° (WSW) 1,503 -0.5 -26.5°
Enters shadow 22:20:28 12° 253° (WSW) 1,371 -0.8 -26.5°
